| time (UTC) | temp C | wind direction | speed KPH | gust KPH | rain 1hr cm | rain 24hr cm | rain mn cm | humidity % | barometer mb |
| 20260504032917 | 7 | 0.0 | 0.0 | 0.00 | 0.00 | 0.00 | 59 | 1012.8 | |
| 20260504031917 | 7 | 0.0 | 0.0 | 0.00 | 0.00 | 0.00 | 59 | 1012.7 | |
| 20260504030917 | 7 | 0.0 | 0.0 | 0.00 | 0.00 | 0.00 | 59 | 1012.6 | |
| 20260504025917 | 7 | 0.0 | 0.0 | 0.00 | 0.00 | 0.00 | 59 | 1012.6 | |
| 20260504024917 | 7 | 0.0 | 0.0 | 0.00 | 0.00 | 0.00 | 59 | 1012.6 | |
| 20260504023917 | 7 | 0.0 | 0.0 | 0.00 | 0.00 | 0.00 | 59 | 1012.7 | |
| 20260504022917 | 7 | 0.0 | 0.0 | 0.00 | 0.00 | 0.00 | 59 | 1012.6 | |
| 20260504021916 | 7 | 0.0 | 0.0 | 0.00 | 0.00 | 0.00 | 57 | 1012.7 | |
| 20260504020917 | 8 | 0.0 | 0.0 | 0.00 | 0.00 | 0.00 | 57 | 1012.6 | |
| 20260504015917 | 8 | 0.0 | 0.0 | 0.00 | 0.00 | 0.00 | 56 | 1012.7 | |
| 20260504014917 | 8 | 0.0 | 0.0 | 0.00 | 0.00 | 0.00 | 54 | 1012.6 | |
| 20260504013916 | 8 | 0.0 | 0.0 | 0.00 | 0.00 | 0.00 | 53 | 1012.4 | |
| 20260504012917 | 8 | 0.0 | 0.0 | 0.00 | 0.00 | 0.00 | 52 | 1012.3 | |
| 20260504011917 | 9 | 0.0 | 0.0 | 0.00 | 0.00 | 0.00 | 51 | 1012.3 | |
| 20260504010917 | 10 | 0.0 | 0.0 | 0.00 | 0.00 | 0.00 | 49 | 1012.1 | |
| 20260504005937 | 10 | 0.0 | 0.0 | 0.00 | 0.00 | 0.00 | 47 | 1012.0 | |
| 20260504004916 | 10 | 0.0 | 0.0 | 0.00 | 0.00 | 0.00 | 45 | 1011.9 | |
| 20260504003916 | 11 | 0.0 | 0.0 | 0.00 | 0.00 | 0.00 | 45 | 1011.8 | |
| 20260504002956 | 11 | 0.0 | 0.0 | 0.00 | 0.00 | 0.00 | 44 | 1011.7 | |
| 20260504001917 | 11 | 0.0 | 0.0 | 0.00 | 0.00 | 0.00 | 43 | 1011.6 | |
| 20260504000937 | 11 | 0.0 | 0.0 | 0.00 | 0.00 | 0.00 | 41 | 1011.3 | |
| 20260503235916 | 12 | 0.0 | 0.0 | 0.00 | 0.00 | 0.00 | 41 | 1011.2 | |
| 20260503234917 | 12 | 0.0 | 0.0 | 0.00 | 0.00 | 0.00 | 40 | 1011.1 | |
| 20260503233916 | 12 | 0.0 | 0.0 | 0.00 | 0.00 | 0.00 | 40 | 1011.0 | |
| 20260503232917 | 12 | 0.0 | 0.0 | 0.00 | 0.00 | 0.00 | 38 | 1010.9 | |
| 20260503231916 | 12 | 0.0 | 0.0 | 0.00 | 0.00 | 0.00 | 40 | 1010.8 | |
| 20260503230917 | 12 | 0.0 | 0.0 | 0.00 | 0.00 | 0.00 | 38 | 1010.8 | |
| 20260503225917 | 13 | 0.0 | 0.0 | 0.00 | 0.00 | 0.00 | 41 | 1010.6 | |
| 20260503224916 | 13 | 0.0 | 0.0 | 0.00 | 0.00 | 0.00 | 37 | 1010.5 | |
| 20260503223916 | 13 | 0.0 | 0.0 | 0.00 | 0.00 | 0.00 | 37 | 1010.6 | |
| 20260503222937 | 13 | 0.0 | 1.6 | 0.00 | 0.00 | 0.00 | 36 | 1010.7 | |
| 20260503221917 | 13 | 0.0 | 0.0 | 0.00 | 0.00 | 0.00 | 36 | 1010.6 | |
| 20260503220916 | 13 | 135 | 1.6 | 6.4 | 0.00 | 0.00 | 0.00 | 34 | 1010.5 |
| 20260503215916 | 13 | 0.0 | 0.0 | 0.00 | 0.00 | 0.00 | 34 | 1010.6 | |
| 20260503214916 | 13 | 0.0 | 0.0 | 0.00 | 0.00 | 0.00 | 33 | 1010.7 | |
| 20260503213936 | 14 | 0.0 | 1.6 | 0.00 | 0.00 | 0.00 | 35 | 1010.6 | |
| 20260503212936 | 14 | 45 | 1.6 | 4.8 | 0.00 | 0.00 | 0.00 | 34 | 1010.5 |
| 20260503211916 | 14 | 0.0 | 1.6 | 0.00 | 0.00 | 0.00 | 31 | 1010.6 | |
| 20260503210916 | 14 | 0.0 | 0.0 | 0.00 | 0.00 | 0.00 | 32 | 1010.5 | |
| 20260503205936 | 14 | 0.0 | 1.6 | 0.00 | 0.00 | 0.00 | 32 | 1010.5 | |
| 20260503204916 | 15 | 0.0 | 0.0 | 0.00 | 0.00 | 0.00 | 31 | 1010.4 | |
| 20260503203916 | 15 | 90 | 3.2 | 6.4 | 0.00 | 0.00 | 0.00 | 33 | 1010.6 |
| 20260503202917 | 15 | 68 | 3.2 | 6.4 | 0.00 | 0.00 | 0.00 | 30 | 1010.5 |
| 20260503201956 | 15 | 135 | 1.6 | 9.7 | 0.00 | 0.00 | 0.00 | 33 | 1010.7 |
| 20260503200916 | 15 | 0.0 | 3.2 | 0.00 | 0.00 | 0.00 | 32 | 1010.8 | |
| 20260503195916 | 15 | 0.0 | 3.2 | 0.00 | 0.00 | 0.00 | 32 | 1010.8 | |
| 20260503194917 | 15 | 0.0 | 0.0 | 0.00 | 0.00 | 0.00 | 33 | 1010.8 | |
| 20260503193917 | 15 | 23 | 3.2 | 8.0 | 0.00 | 0.00 | 0.00 | 34 | 1011.0 |
| 20260503192916 | 15 | 0.0 | 1.6 | 0.00 | 0.00 | 0.00 | 34 | 1011.0 | |
| 20260503191916 | 15 | 113 | 1.6 | 3.2 | 0.00 | 0.00 | 0.00 | 34 | 1011.1 |
| 20260503190916 | 15 | 0.0 | 3.2 | 0.00 | 0.00 | 0.00 | 35 | 1011.3 | |
| 20260503185936 | 15 | 158 | 1.6 | 4.8 | 0.00 | 0.00 | 0.00 | 33 | 1011.2 |
| 20260503184916 | 14 | 135 | 1.6 | 8.0 | 0.00 | 0.00 | 0.00 | 36 | 1011.5 |
| 20260503183916 | 14 | 270 | 1.6 | 4.8 | 0.00 | 0.00 | 0.00 | 36 | 1011.5 |
| 20260503182936 | 13 | 45 | 1.6 | 4.8 | 0.00 | 0.00 | 0.00 | 39 | 1011.5 |
| 20260503181916 | 13 | 68 | 1.6 | 3.2 | 0.00 | 0.00 | 0.00 | 38 | 1011.6 |
| 20260503180916 | 13 | 0.0 | 1.6 | 0.00 | 0.00 | 0.00 | 39 | 1011.5 | |
| 20260503175916 | 13 | 0.0 | 0.0 | 0.00 | 0.00 | 0.00 | 39 | 1011.6 | |
| 20260503174916 | 13 | 68 | 3.2 | 8.0 | 0.00 | 0.00 | 0.00 | 40 | 1011.8 |
| 20260503173916 | 13 | 90 | 1.6 | 6.4 | 0.00 | 0.00 | 0.00 | 42 | 1011.9 |
| 20260503172916 | 13 | 68 | 3.2 | 9.7 | 0.00 | 0.00 | 0.00 | 39 | 1012.0 |
| 20260503171916 | 12 | 23 | 1.6 | 6.4 | 0.00 | 0.00 | 0.00 | 42 | 1011.9 |
| 20260503170916 | 12 | 0.0 | 1.6 | 0.00 | 0.00 | 0.00 | 41 | 1012.1 | |
| 20260503150916 | 11 | 0.0 | 1.6 | 0.00 | 0.00 | 0.00 | 41 | 1012.4 | |
| 20260503130915 | 8 | 0.0 | 1.6 | 0.00 | 0.00 | 0.00 | 57 | 1012.4 | |
| 20260503080915 | 6 | 0.0 | 0.0 | 0.00 | 0.00 | 0.00 | 64 | 1010.8 | |
| 20260503072937 | 6 | 0.0 | 0.0 | 0.00 | 0.00 | 0.00 | 61 | 1010.7 | |
| 20260503071917 | 6 | 0.0 | 0.0 | 0.00 | 0.00 | 0.00 | 60 | 1010.7 | |
| 20260503070937 | 7 | 0.0 | 0.0 | 0.00 | 0.00 | 0.00 | 60 | 1010.7 | |
| 20260503054916 | 8 | 0.0 | 0.0 | 0.00 | 0.00 | 0.00 | 55 | 1011.1 | |
| 20260503053916 | 8 | 0.0 | 0.0 | 0.00 | 0.00 | 0.00 | 54 | 1011.2 | |
| 20260503052916 | 8 | 0.0 | 0.0 | 0.00 | 0.00 | 0.00 | 52 | 1011.1 | |
| 20260503051956 | 8 | 0.0 | 0.0 | 0.00 | 0.00 | 0.00 | 53 | 1011.3 | |
| 20260503050936 | 8 | 0.0 | 0.0 | 0.00 | 0.00 | 0.00 | 51 | 1011.3 | |
| 20260503045916 | 9 | 0.0 | 0.0 | 0.00 | 0.00 | 0.00 | 51 | 1011.4 | |
| 20260503044916 | 9 | 0.0 | 0.0 | 0.00 | 0.00 | 0.00 | 51 | 1011.5 | |
| 20260503043916 | 9 | 0.0 | 3.2 | 0.00 | 0.00 | 0.00 | 50 | 1011.6 | |
| 20260503042916 | 9 | 0.0 | 1.6 | 0.00 | 0.00 | 0.00 | 50 | 1011.5 | |
| 20260503041915 | 9 | 0.0 | 1.6 | 0.00 | 0.00 | 0.00 | 51 | 1011.6 | |
| 20260503040936 | 9 | 0.0 | 1.6 | 0.00 | 0.00 | 0.00 | 52 | 1011.7 | |
| 20260503035936 | 9 | 0.0 | 0.0 | 0.00 | 0.00 | 0.00 | 53 | 1011.6 | |
| 20260503034916 | 9 | 0.0 | 0.0 | 0.00 | 0.00 | 0.00 | 55 | 1011.5 | |
| 20260503033916 | 8 | 0.0 | 0.0 | 0.00 | 0.00 | 0.00 | 53 | 1011.4 |